COSMOS 791

Satellite information

Favourite Embed

Satellite Type and Status

PAYLOADIN ORBIT

Key statistics

Satellite COSMOS 791 at a glance.

Uptime

18121

Days in orbit

Revolutions

≈ 12.6

Per day

Orbit

LEO

Low Earth Orbit

Inclination

74.1

Latest

Satellite identification and parameters

Extended collection of information and parameters for COSMOS 791.

Object identification

Identified? True

Debris? False

Object name: COSMOS 791

International designator: 1976-008A

Object number (NORAD): 8607

Object ID (CCSDS): 8607

Country: COMMONWEALTH OF INDEPENDENT STATES (CIS)

Current information (Y/N): Y

RCS size: MEDIUM

Orbital parameters

Period: 114.737 minutes

Inclination: 74.0558 deg

SMA: 7821.622 km

Apoapsis: 1486.554 km

Periapsis: 1400.42 km

RAAN: 150.9942 deg

Eccentricy: 0.00550615

Argument of periapsis: 291.9591 deg

Mean anomaly: 135.5326 deg

Mean motion: 12.55039906 rev/day

Mean motion (dot): 0.00000001 rev/day2

B* drag term: 0.00010597411 1/REarth

Two-line elements (TLE)

Creation date: Sept. 8, 2025, 3:16 a.m.

Reference frame: TEME

Reference center: EARTH

Epoch: Sept. 7, 2025, 8:39 p.m. UTC

TLE line 0: 0 COSMOS 791

TLE line 1: 1 08607U 76008A 25250.86080009 .00000001 00000-0 10597-3 0 9993

TLE line 2: 2 08607 74.0558 150.9942 0055062 291.9591 135.5326 12.55039906272899

Live tracking on map

Real-time ground track for satellite COSMOS 791.

In-orbit conjunctions

There are no conjunctions computed for COSMOS 791, at the moment. Check back to stay up to date, as we update our databases every day.

Go to all conjunctions

Associated space launch

Military communications satellites

COSMOS 791 was lifted into orbit during the mission ‘Kosmos-3M | Strela-1M 105-112’, on board a Kosmos-3M space rocket.

The launch took place on Jan. 28, 1976, 10:39 a.m. from 132/1 (132L).

For more information about the launch, click the button.

Launch to space Kosmos-3M | Strela-1M 105-112
Kosmos-3M | Strela-1M 105-112

Agency: N/A

Status: Launch Successful

Launch date: Jan. 28, 1976, 10:39 a.m. UTC

Rocket: Kosmos-3M

Launch pad: 132/1 (132L)

Location: Plesetsk Cosmodrome, Russian Federation

...

Latest news about this satellite

There are no fresh news available about this satellite. Check back as we update our databases every day.


Newsletter sign-up

Weekly statistics, charts and insights to help you stay on top of the space industry.